Snowfall_Accumulation
0.0 0.0 0.0 0.0 0.0 0.0 0.0 0.0 0.0 0.0 0.0 0.0 0.0 0.0 0.0 0.0 0.0 0.0 0.0 0.0 0.0 0.0 0.0 0.0 0.0 0.0 0.0 0.0 0.0 0.0 0.0 0.0 0.0 0.0 0.0 0.0 0.0 0.0 0.0 0.0 0.0 0.0 0.0 0.0
0.0 0.0 0.0 0.0 0.0 0.0 0.0 0.0 0.0 0.0 0.0 0.0 0.0 0.0 0.0 0.0 0.0 0.0 0.0 0.0 0.0 0.0 0.0 0.0 0.0 0.0 0.0 0.0 0.0 0.0 0.0 0.0 0.0 0.0 0.0 0.0 0.0 0.0 0.0 0.0 0.0 0.0 0.0 0.0
0.0 0.0 0.0 0.0 0.0 0.0 0.0 0.0 0.0 0.0 0.0 0.0 0.0 0.0 0.0 0.0 0.0 0.0 0.0 0.0 0.0 0.0 0.0 0.0 0.0 0.0 0.0 0.0 0.0 0.0 0.0 0.0 0.0 0.0 0.0 0.0 0.0 0.0 0.0 0.0 0.0 0.0 0.0 0.0
0.0 0.0 0.0 0.0 0.0 0.0 0.0 0.0 0.0 0.0 0.2 1.2 0.0 2.8 0.0 0.0 0.0 0.0 0.0 0.0 0.0 0.0 0.0 0.0 0.0 0.0 0.0 0.0 0.0 0.0 0.0 0.0 0.0 0.0 0.0 0.0 0.0 0.0 0.0 0.0 0.0 0.0 0.0 0.0
0.0 0.0 0.0 0.0 0.0 0.0 0.1 0.0 0.0 0.0 0.3 0.2 0.0 0.6 0.0 0.0 0.0 0.0 0.0 0.0 0.0 0.0 0.0 0.0 0.0 0.0 0.0 0.0 0.0 0.0 0.0 0.0 0.0 0.0 0.0 0.0 0.0 0.0 0.0 0.0 0.0 0.0 0.0 0.0
0.0 0.0 0.0 0.0 0.0 0.0 0.0 0.0 0.0 0.0 0.0 6.5 0.0 0.0 0.0 0.0 0.0 0.0 0.0 0.0 0.0 0.0 0.0 0.0 0.0 0.0 0.0 0.0 0.0 0.0 0.0 0.0 0.0 0.0 0.0 0.0 0.0 0.0 0.0 0.0 0.0 0.0 0.0 0.0
0.0 0.0 0.0 0.0 0.0 0.0 0.0 0.3 13.0 15.4 23.0 9.3 0.0 0.0 0.0 0.0 0.0 0.0 0.0 0.0 0.0 0.0 0.0 0.0 0.0 0.0 0.0 0.0 0.0 0.0 0.0 0.0 0.0 0.0 0.0 0.0 0.0 0.0 0.0 0.0 0.0 0.0 0.0 0.0
0.6 2.1 0.0 0.0 0.0 0.1 0.1 1.3 7.3 10.3 7.2 1.8 0.0 2.4 0.0 0.0 0.0 0.0 0.0 0.0 0.0 0.0 0.0 0.0 0.0 0.0 0.0 0.0 0.0 0.0 0.0 0.0 0.0 0.0 0.0 0.0 0.0 0.0 0.0 0.0 0.0 0.0 0.0 0.0
0.7 0.3 0.0 0.0 0.0 0.0 0.7 3.0 0.0 7.7 3.5 4.5 0.3 0.0 0.0 0.0 0.0 0.0 0.0 0.0 0.0 0.0 0.0 0.0 0.0 0.0 0.0 0.0 0.0 0.0 0.0 0.0 0.0 0.0 0.0 0.0 0.0 0.0 0.0 0.0 0.0 0.0 0.0 0.0
0.1 1.6 0.0 0.0 0.0 0.0 0.3 0.0 5.3 6.0 13.2 6.1 1.5 0.2 0.1 0.0 0.0 0.0 0.0 0.0 0.0 0.0 0.0 0.0 0.0 0.0 0.0 0.0 0.0 0.0 0.0 0.0 0.0 0.0 0.0 0.0 0.0 0.0 0.0 0.0 0.0 0.0 0.0 0.0
0.1 0.6 0.2 0.0 0.1 0.1 1.1 3.0 2.2 1.4 2.9 6.5 4.9 1.1 0.0 0.0 0.0 0.1 0.0 0.0 0.0 0.0 0.0 0.0 0.0 0.0 0.0 0.0 0.0 0.0 0.0 0.0 0.0 0.0 0.0 0.0 0.0 0.0 0.0 0.0 0.0 0.0 0.0 0.0
0.1 0.8 2.5 0.2 0.0 0.0 0.1 0.2 0.5 7.6 2.5 1.1 3.8 2.5 0.0 0.0 0.0 0.0 0.0 0.0 0.0 0.0 0.0 0.0 0.1 0.1 0.0 0.1 0.1 0.2 0.1 0.1 0.0 0.0 0.0 0.0 0.0 0.0 0.1 0.2 0.2 0.1 0.4 0.1
0.7 4.2 7.8 3.5 1.8 0.0 0.0 0.0 0.1 1.6 2.4 2.7 13.8 2.5 0.0 0.0 0.0 0.0 0.1 0.1 0.1 0.1 0.0 0.0 0.1 0.1 0.1 0.2 0.2 0.2 0.2 0.1 0.0 0.0 0.0 0.1 0.2 0.7 2.2 3.5 2.3 0.9 2.0 2.0
nan 2.4 5.3 2.8 0.5 0.4 0.2 0.0 0.0 5.3 11.7 5.8 2.6 4.3 0.1 0.3 1.0 0.1 0.1 0.1 0.2 0.3 0.3 0.4 0.2 0.3 0.3 0.6 0.7 0.4 0.2 0.1 0.1 0.1 0.2 0.4 0.9 0.8 2.1 3.7 4.7 4.5 2.8 2.2
1.9 7.2 1.2 1.0 0.2 0.2 0.2 0.3 0.3 2.4 3.2 9.5 2.0 5.1 4.6 3.9 7.5 3.6 1.7 0.3 0.6 0.7 0.7 1.3 1.1 1.3 1.1 1.3 1.2 2.2 1.5 0.5 0.5 0.7 2.4 4.6 2.9 2.4 3.7 6.1 6.2 5.5 4.2 3.9
1.1 7.1 1.2 3.8 0.5 0.5 1.0 0.1 0.1 0.3 1.5 0.6 0.3 1.0 0.0 0.0 0.1 1.9 1.9 2.1 1.6 3.0 3.1 3.0 2.4 2.3 1.6 2.6 2.9 4.6 4.9 3.5 1.9 3.0 7.9 6.4 6.6 5.4 6.0 9.2 8.4 7.1 6.3 6.5
3.5 5.7 9.0 14.3 0.4 1.0 14.0 0.1 0.1 1.2 0.7 3.2 4.5 2.8 0.3 2.0 1.9 4.1 2.5 3.1 4.0 4.7 4.5 3.2 3.8 3.9 2.3 4.2 3.1 7.8 7.4 4.1 6.6 7.2 9.2 9.8 11.3 8.5 9.2 8.5 7.8 6.9 6.0 5.0
5.8 5.2 5.1 18.5 6.5 40.5 1.2 0.0 0.0 0.2 0.2 0.5 0.9 1.2 0.2 6.7 1.1 1.8 2.4 3.9 4.0 4.7 5.3 5.0 3.6 3.7 3.6 3.2 4.4 5.8 5.9 7.0 9.1 9.1 10.7 10.3 10.9 8.9 7.7 7.6 7.4 7.0 5.0 5.4
1.7 2.7 23.3 38.5 19.6 0.4 0.0 0.0 0.0 0.5 0.5 0.0 0.1 0.0 0.0 0.2 0.0 0.1 2.0 3.5 5.1 5.5 6.0 5.8 5.3 6.0 5.9 7.8 7.5 7.9 9.3 11.4 9.5 11.4 11.2 10.9 9.2 10.5 8.9 8.5 8.8 6.3 3.6 2.6
1.4 1.7 7.6 30.9 28.0 24.3 0.1 0.0 0.0 0.0 0.8 0.0 0.1 0.0 0.0 0.0 0.3 1.4 4.0 3.6 4.9 6.4 8.5 10.1 9.4 10.4 8.1 9.3 6.9 5.6 8.4 8.3 10.4 9.9 10.4 9.8 9.2 8.5 8.6 6.6 7.3 7.8 4.0 4.1
16.9 23.5 37.2 25.6 26.7 9.5 0.1 0.1 0.0 3.7 0.9 0.2 0.0 0.0 0.1 0.4 2.0 2.4 3.4 2.8 4.1 5.8 7.7 7.7 6.5 6.7 8.2 9.8 4.8 5.8 6.0 6.4 6.3 5.6 6.7 7.2 6.4 6.3 5.4 3.7 2.9 2.8 3.1 3.2
6.2 16.6 30.5 22.9 27.7 30.2 0.1 0.4 2.6 1.8 0.3 0.7 0.1 0.0 0.3 0.0 0.1 1.3 1.4 2.2 2.7 3.6 5.2 5.8 3.1 4.5 8.0 7.8 2.0 3.8 2.4 5.4 4.3 2.7 3.0 3.4 3.4 2.8 2.7 1.8 1.0 1.8 1.2 1.1
8.2 6.6 6.4 6.4 5.2 1.1 0.8 2.9 2.4 2.8 1.6 0.7 0.4 0.0 0.2 0.1 0.0 0.1 0.2 0.3 0.3 0.6 0.9 2.0 0.7 0.5 1.4 2.0 0.2 0.1 3.3 2.3 2.5 2.3 4.1 3.5 2.6 2.2 1.9 1.4 0.6 1.7 0.4 1.4
1.6 2.1 2.7 1.9 0.8 0.7 1.7 1.8 1.6 1.3 1.4 1.0 0.6 0.6 0.3 0.2 0.0 0.0 0.0 0.1 0.1 0.3 0.6 1.2 1.1 0.8 0.6 0.5 0.7 0.7 1.0 1.0 4.0 4.2 2.4 1.4 1.5 0.9 1.0 1.7 1.7 2.5 2.3 2.3
0.8 1.0 2.0 1.5 0.2 0.7 1.1 1.0 1.1 0.5 0.5 0.6 0.9 1.2 0.5 0.3 0.0 0.1 0.1 0.2 0.1 0.3 0.6 1.3 1.5 1.0 0.9 0.8 0.9 1.6 1.5 1.7 2.8 3.4 1.6 1.2 2.0 2.2 1.5 1.5 2.2 1.9 0.8 2.1
0.4 0.3 0.9 0.7 0.2 0.7 0.3 0.2 0.2 0.2 0.2 0.1 0.6 1.8 0.4 0.6 0.7 1.1 0.7 0.4 0.4 0.7 1.0 1.6 2.0 1.7 1.7 2.2 2.4 3.0 3.6 3.6 4.3 2.4 3.3 2.8 2.8 2.4 2.2 2.3 2.6 nan nan nan
Water_Equivalent
0.00 0.00 0.00 0.00 0.00 0.00 0.00 0.00 0.00 0.00 0.00 0.00 0.00 0.00 0.00 0.00 0.00 0.00 0.00 0.00 0.00 0.00 0.00 0.00 0.00 0.00 0.00 0.00 0.00 0.00 0.00 0.00 0.00 0.00 0.00 0.00 0.00 0.00 0.00 0.00 0.00 0.00 0.00 0.00
0.00 0.00 0.00 0.00 0.00 0.00 0.00 0.00 0.01 0.00 0.00 0.00 0.00 0.00 0.00 0.00 0.00 0.00 0.00 0.00 0.00 0.00 0.00 0.00 0.00 0.00 0.00 0.00 0.00 0.00 0.00 0.00 0.00 0.00 0.00 0.00 0.00 0.00 0.00 0.00 0.00 0.00 0.00 0.00
0.01 0.00 0.00 0.00 0.00 0.00 0.00 0.00 0.00 0.00 0.00 0.00 0.00 0.00 0.00 0.00 0.00 0.00 0.00 0.00 0.00 0.00 0.00 0.00 0.00 0.00 0.00 0.00 0.00 0.00 0.00 0.00 0.00 0.00 0.00 0.00 0.00 0.00 0.00 0.00 0.00 0.00 0.00 0.00
0.00 0.00 0.00 0.00 0.00 0.00 0.01 0.00 0.00 0.00 0.04 0.29 0.00 0.63 0.00 0.00 0.00 0.00 0.00 0.00 0.00 0.00 0.00 0.00 0.00 0.00 0.00 0.00 0.00 0.00 0.00 0.00 0.00 0.00 0.00 0.00 0.00 0.00 0.00 0.00 0.00 0.00 0.00 0.00
0.00 0.00 0.01 0.00 0.00 0.00 0.02 0.00 0.00 0.00 0.08 0.04 0.00 0.14 0.00 0.00 0.00 0.00 0.00 0.00 0.00 0.00 0.00 0.00 0.00 0.00 0.00 0.00 0.00 0.00 0.00 0.00 0.00 0.00 0.00 0.00 0.00 0.00 0.00 0.00 0.00 0.00 0.00 0.00
0.00 0.00 0.00 0.00 0.00 0.00 0.00 0.00 0.00 0.01 0.01 1.45 0.00 0.00 0.00 0.00 0.00 0.00 0.00 0.00 0.00 0.00 0.00 0.00 0.00 0.00 0.00 0.00 0.00 0.00 0.00 0.00 0.00 0.00 0.00 0.00 0.00 0.00 0.00 0.00 0.00 0.00 0.00 0.00
0.00 0.00 0.00 0.00 0.01 0.00 0.00 0.08 2.75 3.55 4.55 1.90 0.00 0.00 0.00 0.00 0.00 0.00 0.00 0.00 0.00 0.00 0.00 0.00 0.00 0.00 0.00 0.00 0.00 0.00 0.00 0.00 0.00 0.00 0.00 0.00 0.00 0.00 0.00 0.00 0.00 0.00 0.00 0.00
0.16 0.49 0.00 0.00 0.00 0.03 0.03 0.34 1.32 1.43 1.15 0.38 0.00 0.51 0.00 0.00 0.00 0.00 0.00 0.00 0.00 0.00 0.00 0.00 0.00 0.00 0.00 0.00 0.00 0.00 0.00 0.00 0.00 0.00 0.00 0.00 0.00 0.00 0.00 0.00 0.00 0.00 0.00 0.00
0.14 0.07 0.00 0.00 0.00 0.00 0.16 0.72 0.00 1.23 0.64 0.73 0.11 0.01 0.00 0.00 0.00 0.00 0.00 0.00 0.00 0.00 0.00 0.00 0.00 0.00 0.00 0.00 0.00 0.00 0.00 0.00 0.00 0.00 0.00 0.00 0.00 0.00 0.00 0.00 0.00 0.00 0.00 0.00
0.03 0.26 0.00 0.00 0.00 0.00 0.06 0.00 0.85 1.32 1.98 0.87 0.32 0.05 0.03 0.00 0.00 0.00 0.01 0.00 0.00 0.00 0.00 0.00 0.00 0.00 0.00 0.00 0.00 0.00 0.00 0.00 0.00 0.00 0.00 0.00 0.00 0.00 0.00 0.00 0.00 0.01 0.00 0.00
0.02 0.11 0.04 0.00 0.03 0.03 0.30 0.76 0.52 0.28 0.57 1.06 0.75 0.24 0.00 0.00 0.01 0.03 0.01 0.00 0.00 0.00 0.00 0.00 0.00 0.00 0.00 0.00 0.00 0.00 0.00 0.01 0.01 0.00 0.00 0.00 0.00 0.00 0.00 0.00 0.01 0.01 0.01 0.01
0.01 0.18 0.51 0.04 0.01 0.01 0.02 0.04 0.12 1.21 0.41 0.22 0.61 0.33 0.00 0.00 0.00 0.00 0.01 0.01 0.01 0.01 0.00 0.00 0.02 0.01 0.01 0.02 0.02 0.03 0.03 0.03 0.01 0.00 0.00 0.00 0.00 0.00 0.02 0.07 0.06 0.03 0.14 0.04
0.20 0.95 1.52 0.70 0.36 0.01 0.01 0.00 0.01 0.27 0.52 0.39 1.94 0.44 0.00 0.00 0.00 0.00 0.02 0.02 0.03 0.02 0.01 0.01 0.02 0.03 0.03 0.03 0.04 0.04 0.04 0.02 0.01 0.00 0.01 0.02 0.07 0.21 0.60 0.96 0.65 0.27 0.67 0.72
nan 0.49 0.77 0.42 0.06 0.06 0.04 0.01 0.00 0.80 1.89 0.90 0.46 0.71 0.02 0.07 0.23 0.03 0.02 0.02 0.05 0.06 0.05 0.06 0.04 0.06 0.06 0.11 0.13 0.09 0.05 0.03 0.04 0.04 0.05 0.12 0.23 0.23 0.58 1.06 1.45 1.40 0.93 0.71
0.24 1.34 0.23 0.20 0.05 0.04 0.04 0.06 0.06 0.34 0.51 1.33 0.36 0.72 0.85 0.86 1.69 0.90 0.40 0.07 0.12 0.14 0.13 0.22 0.21 0.22 0.21 0.28 0.29 0.52 0.39 0.15 0.13 0.19 0.65 1.15 0.77 0.68 1.03 1.61 1.66 1.48 1.27 1.16
0.16 1.40 0.18 0.65 0.10 0.08 0.15 0.03 0.03 0.06 0.31 0.11 0.06 0.16 0.00 0.00 0.03 0.49 0.48 0.48 0.33 0.56 0.61 0.59 0.49 0.49 0.35 0.54 0.61 0.99 1.14 0.79 0.41 0.73 1.58 1.49 1.66 1.45 1.42 1.95 1.52 1.36 1.18 1.39
0.50 0.97 2.19 3.13 0.06 0.14 2.32 0.01 0.02 0.22 0.14 0.49 0.62 0.46 0.08 0.40 0.43 0.99 0.57 0.67 0.78 0.93 0.89 0.69 0.82 0.95 0.53 0.85 0.65 1.43 1.38 0.88 1.32 1.43 2.11 2.28 2.31 1.57 1.66 1.58 1.55 1.26 1.06 1.09
0.98 1.19 1.24 4.03 1.61 6.66 0.25 0.00 0.01 0.05 0.05 0.11 0.18 0.23 0.04 1.35 0.28 0.45 0.52 0.76 0.78 0.86 1.02 0.96 0.79 0.95 0.90 0.79 0.94 1.20 1.30 1.53 1.85 1.79 1.94 1.86 1.94 1.53 1.39 1.34 1.26 1.43 1.05 1.24
0.27 0.46 4.41 7.01 3.41 0.09 0.00 0.00 0.01 0.09 0.09 0.00 0.02 0.01 0.01 0.05 0.00 0.04 0.46 0.79 1.08 1.15 1.28 1.22 1.20 1.34 1.41 1.62 1.46 1.46 1.63 2.10 1.79 1.92 1.81 1.76 1.48 1.69 1.39 1.28 1.40 1.03 0.61 0.43
0.21 0.27 1.33 6.10 5.15 3.71 0.01 0.00 0.00 0.00 0.16 0.00 0.01 0.01 0.01 0.00 0.06 0.35 0.85 0.73 0.87 1.11 1.36 1.68 1.66 1.90 1.35 1.49 1.07 0.82 1.14 1.12 1.40 1.39 1.52 1.47 1.35 1.25 1.15 0.86 0.98 1.24 0.69 0.68
3.03 4.79 6.94 4.96 5.16 1.98 0.01 0.01 0.00 0.63 0.12 0.02 0.00 0.00 0.01 0.07 0.48 0.56 0.72 0.58 0.78 0.99 1.18 1.22 1.00 0.99 1.20 1.49 0.72 0.77 0.76 0.76 0.85 0.74 0.87 0.94 0.84 0.83 0.70 0.51 0.43 0.40 0.45 0.49
0.87 2.72 5.46 4.01 4.75 4.66 0.02 0.06 0.23 0.19 0.04 0.08 0.01 0.00 0.04 0.00 0.03 0.27 0.28 0.41 0.47 0.58 0.79 0.86 0.44 0.60 1.10 1.10 0.27 0.45 0.28 0.68 0.54 0.34 0.37 0.43 0.47 0.38 0.39 0.31 0.16 0.30 0.19 0.17
1.03 0.67 0.83 0.67 0.74 0.13 0.10 0.35 0.34 0.39 0.20 0.10 0.05 0.00 0.03 0.02 0.00 0.02 0.04 0.05 0.07 0.12 0.15 0.30 0.11 0.07 0.18 0.27 0.04 0.02 0.39 0.30 0.34 0.36 0.66 0.57 0.42 0.36 0.30 0.29 0.13 0.44 0.10 0.34
0.17 0.25 0.34 0.23 0.09 0.09 0.21 0.25 0.23 0.19 0.19 0.13 0.08 0.08 0.04 0.03 0.00 0.00 0.01 0.02 0.02 0.05 0.10 0.20 0.17 0.12 0.09 0.09 0.11 0.11 0.16 0.16 0.78 0.79 0.37 0.22 0.27 0.19 0.19 0.39 0.42 0.61 0.53 0.48
0.13 0.14 0.32 0.27 0.02 0.09 0.15 0.14 0.15 0.07 0.07 0.09 0.13 0.17 0.07 0.04 0.01 0.01 0.03 0.04 0.03 0.05 0.10 0.19 0.21 0.15 0.12 0.11 0.12 0.25 0.22 0.29 0.47 0.52 0.21 0.21 0.38 0.43 0.27 0.28 0.48 0.41 0.17 0.47
0.08 0.04 0.15 0.15 0.03 0.10 0.04 0.03 0.03 0.04 0.03 0.03 0.09 0.26 0.06 0.10 0.10 0.17 0.13 0.08 0.07 0.10 0.13 0.20 0.23 0.19 0.19 0.24 0.28 0.37 0.53 0.55 0.60 0.30 0.49 0.48 0.49 0.43 0.37 0.39 0.44 nan nan nan
SL_Ratio
nan nan nan nan nan nan nan nan nan nan nan nan nan nan nan nan nan nan nan nan nan nan nan nan nan nan nan nan nan nan nan nan nan nan nan nan nan nan nan nan nan nan nan nan
nan nan nan nan nan nan nan nan 3.2 nan nan nan nan nan nan nan nan nan nan nan nan nan nan nan nan nan nan nan nan nan nan nan nan nan nan nan nan nan nan nan nan nan nan nan
3.4 nan nan nan nan nan nan nan nan 3.3 nan nan nan 2.5 nan nan nan nan nan nan nan nan nan nan nan nan nan nan nan nan nan nan nan nan nan nan nan nan nan nan nan nan nan nan
nan nan nan nan nan nan 4.4 nan nan nan 3.5 4.0 nan 4.4 nan nan nan nan nan nan nan nan nan nan nan nan nan nan nan nan nan nan nan nan nan nan nan nan nan nan nan nan nan nan
nan nan 5.0 nan nan nan 3.6 nan nan nan 3.5 4.2 nan 4.5 nan nan nan nan nan nan nan nan nan nan nan nan nan nan nan nan nan nan nan nan nan nan nan nan nan nan nan nan nan nan
nan nan 5.0 nan nan nan nan nan nan 2.9 3.3 4.5 nan 3.3 nan nan nan nan nan nan nan nan nan nan nan nan nan nan nan nan nan nan nan nan nan nan nan nan nan nan nan nan nan nan
nan nan nan nan 5.0 4.2 5.0 3.4 4.7 4.4 5.0 4.9 nan 3.8 nan nan nan nan nan nan nan nan nan nan nan nan nan nan nan nan nan nan nan nan nan nan nan nan nan nan nan nan nan nan
3.7 4.2 nan nan 3.8 3.8 4.9 3.9 5.5 7.2 6.3 4.8 nan 4.7 nan nan nan nan nan nan nan nan nan nan nan nan nan nan nan nan nan nan nan nan nan nan nan nan nan 0.0 nan nan nan nan
4.7 3.8 nan nan nan nan 4.6 4.2 5.0 6.3 5.5 6.2 3.1 3.1 nan nan nan nan nan nan nan nan nan nan nan nan nan nan nan nan nan nan nan nan nan nan nan nan nan 0.0 0.0 0.0 nan 5.0
4.6 6.1 5.0 nan 5.0 5.0 4.3 5.0 6.2 4.5 6.6 6.9 4.7 4.1 3.6 nan nan 3.3 3.5 nan nan nan nan nan nan nan nan nan nan nan nan nan nan nan nan nan nan nan 0.0 0.0 2.5 2.5 0.0 2.5
6.2 5.5 4.9 5.0 3.1 3.8 3.7 4.0 4.3 5.0 5.2 6.1 6.4 4.8 3.0 2.5 3.3 3.5 3.4 nan nan 5.0 nan nan nan nan nan nan nan nan 5.0 4.7 4.6 5.0 nan nan nan nan nan 2.9 2.7 2.9 3.0 2.9
4.6 4.6 4.8 3.7 5.6 4.3 5.2 4.0 4.6 6.3 6.1 4.8 6.3 7.5 nan nan nan nan 3.4 3.3 3.7 4.1 nan 3.3 4.0 4.0 4.2 4.1 4.8 5.0 5.0 4.8 3.6 nan nan 0.0 5.0 3.0 3.5 3.2 3.3 3.1 3.1 2.8
3.4 4.4 5.1 5.0 4.9 3.0 3.3 nan 4.5 5.7 4.7 6.8 7.1 5.7 nan nan nan nan 3.6 3.5 3.8 3.8 3.6 4.0 4.4 4.4 4.4 4.9 5.0 5.0 4.4 3.8 3.3 2.5 3.4 3.2 3.4 3.5 3.7 3.7 3.5 3.1 3.0 2.8
nan 5.0 6.9 6.6 8.1 7.2 4.9 2.5 5.0 6.7 6.2 6.4 5.6 6.0 3.8 3.8 4.2 3.5 3.5 3.6 4.3 4.9 5.1 6.0 5.8 5.9 5.3 5.2 5.4 4.6 3.5 3.3 3.2 3.3 3.6 3.7 3.7 3.7 3.6 3.5 3.2 3.2 3.1 3.1
7.9 5.4 5.2 5.1 4.2 4.4 5.5 5.3 4.8 7.1 6.3 7.1 5.5 7.1 5.4 4.6 4.4 4.0 4.2 3.8 4.9 5.2 5.3 5.8 5.4 5.6 5.2 4.6 4.1 4.2 3.9 3.6 3.6 3.5 3.8 4.0 3.8 3.6 3.6 3.8 3.7 3.7 3.3 3.4
6.9 5.1 6.8 5.9 5.3 5.7 6.8 4.6 4.9 4.7 5.0 5.5 5.2 6.0 nan 5.0 3.2 4.0 3.9 4.4 4.9 5.3 5.2 5.1 4.8 4.7 4.6 4.8 4.7 4.7 4.3 4.4 4.7 4.2 5.0 4.3 3.9 3.7 4.2 4.7 5.5 5.2 5.4 4.7
6.9 5.9 4.1 4.6 5.9 7.3 6.0 7.7 4.4 5.6 4.9 6.5 7.3 6.2 3.9 5.1 4.4 4.1 4.5 4.7 5.1 5.0 5.1 4.7 4.6 4.1 4.4 5.0 4.8 5.4 5.3 4.7 5.0 5.0 4.4 4.3 4.9 5.4 5.5 5.4 5.0 5.4 5.7 4.6
6.0 4.4 4.1 4.6 4.0 6.1 4.9 nan 3.6 4.9 4.4 4.4 4.9 5.1 4.1 4.9 3.8 4.0 4.6 5.2 5.1 5.5 5.2 5.2 4.6 3.9 4.0 4.0 4.7 4.8 4.5 4.6 4.9 5.1 5.5 5.5 5.6 5.8 5.5 5.7 5.9 4.9 4.8 4.3
6.3 5.9 5.3 5.5 5.7 4.3 nan nan 4.4 5.5 5.5 3.3 4.8 3.5 3.3 4.0 2.5 3.3 4.2 4.4 4.7 4.8 4.7 4.7 4.4 4.5 4.2 4.8 5.1 5.4 5.7 5.4 5.3 6.0 6.2 6.2 6.2 6.2 6.4 6.7 6.2 6.1 6.0 6.0
6.4 6.4 5.7 5.1 5.4 6.6 9.4 10.0 5.0 10.0 5.1 7.5 8.1 6.3 5.6 nan 5.2 4.0 4.7 4.9 5.6 5.7 6.3 6.0 5.7 5.5 6.0 6.3 6.5 6.8 7.4 7.5 7.4 7.1 6.9 6.7 6.8 6.8 7.5 7.6 7.5 6.3 5.8 6.0
5.6 4.9 5.4 5.2 5.2 4.8 8.3 7.2 6.7 6.0 8.2 8.3 7.5 9.0 8.6 5.9 4.1 4.3 4.8 4.9 5.2 5.8 6.5 6.3 6.5 6.8 6.8 6.6 6.8 7.6 7.9 8.5 7.4 7.6 7.6 7.6 7.6 7.6 7.7 7.3 6.8 7.1 7.0 6.6
7.1 6.1 5.6 5.7 5.8 6.5 6.9 6.4 11.0 9.1 7.5 7.9 8.2 8.0 8.3 10.0 3.7 4.9 5.2 5.4 5.6 6.2 6.6 6.7 7.0 7.5 7.3 7.1 7.5 8.3 8.6 8.0 7.9 7.9 8.0 7.9 7.2 7.4 7.1 5.8 6.1 6.0 6.5 6.4
8.0 9.7 7.7 9.6 7.0 8.6 8.2 8.3 7.0 7.2 7.9 7.8 8.1 6.7 7.6 7.9 3.6 3.8 4.4 4.9 5.0 5.4 5.8 6.4 6.6 6.3 7.9 7.6 4.4 5.0 8.5 7.6 7.3 6.3 6.3 6.2 6.0 6.0 6.4 4.7 4.8 3.9 3.9 4.2
9.0 8.4 7.9 8.2 8.4 8.6 8.0 7.1 7.1 6.8 7.4 7.3 6.9 7.2 7.3 7.9 10.0 5.0 5.0 4.9 5.0 5.1 5.7 5.9 6.3 6.5 5.9 5.7 6.1 6.2 6.6 5.9 5.1 5.3 6.5 6.4 5.6 4.8 5.2 4.2 4.0 4.0 4.4 4.8
5.8 7.0 6.3 5.4 7.6 7.3 7.1 7.4 7.1 7.0 6.9 6.9 6.9 7.0 7.2 7.3 7.5 7.1 4.0 4.1 4.0 5.2 6.6 7.0 7.0 6.9 7.0 6.7 6.9 6.5 6.7 6.0 6.0 6.5 7.4 5.6 5.2 5.2 5.4 5.4 4.5 4.7 4.6 4.4
4.9 6.8 6.3 4.8 6.8 7.4 6.9 6.5 6.3 6.4 5.7 5.2 6.6 6.9 5.9 6.6 6.5 6.3 5.1 5.7 5.2 6.6 7.8 8.3 8.9 9.3 9.3 8.9 8.7 8.0 6.9 6.6 7.1 8.2 6.8 5.9 5.7 5.6 5.9 5.9 5.9 nan nan nan